Regional Weather Roundup
Issued by NWS

Home | Current Version | Previous Version | Text Only | Print | Product List | Glossary On
Versions: 1 2 3 4 5 6 7 8 9 10 11 12 13 14 15 16 17 18 19 20 21 22 23 24 25 26 27 28 29 30 31 32 33 34 35 36 37 38 39 40 41 42 43 44 45 46 47 48 49 50
000
ASUS44 KBMX 261510
RWRAL

ALABAMA REGIONAL WEATHER ROUNDUP
NATIONAL WEATHER SERVICE BIRMINGHAM AL
1000 AM CDT THU APR 26 2018

NOTE: "FAIR" INDICATES FEW OR NO CLOUDS BELOW 12,000 FEET
WITH NO SIGNIFICANT WEATHER AND/OR OBSTRUCTIONS TO VISIBILITY.

THE REMARK "TC" DENOTES TEMPERATURE IN DEGREES CELSIUS.

ALZ001>011-014-016>018-020-261600-
NORTH ALABAMA

CITY           SKY/WX    TMP DP  RH WIND       PRES   REMARKS
MUSCLE SHOALS  CLOUDY    58  53  84 E10G21    29.83F
HUNTSVILLE     LGT RAIN  56  54  93 E15G23    29.83F
DECATUR        PTSUNNY   56  54  93 E10G26    29.83F
HALEYVILLE     CLOUDY    56  56 100 SE10G20   29.83F
GADSDEN        LGT RAIN  55  55 100 NE8       29.91F
$$

ALZ012-013-022-023-030>036-040>044-261600-
WEST CENTRAL ALABAMA

CITY           SKY/WX    TMP DP  RH WIND       PRES   REMARKS
TUSCALOOSA     CLOUDY    60  60 100 S7        29.82S
DEMOPOLIS      CLOUDY    61  55  80 W9G20     29.84S
$$

ALZ015-024>026-033>036-041>044-261600-
CENTRAL ALABAMA

CITY           SKY/WX    TMP DP  RH WIND       PRES   REMARKS
BIRMINGHAM     LGT RAIN  56  54  93 E10       29.86F
MONTGOMERY     LGT RAIN  59  57  93 SE6       29.86F FOG
SHELBY CO ARPT CLOUDY    57  57 100 VRB3      29.82S
MAXWELL AFB    LGT RAIN  57  56  95 SE5       29.84F
GREENVILLE     LGT RAIN  61  58  90 S5        29.85F
SELMA          RAIN      59  57  94 S7        29.84S
PRATTVILLE     RAIN      57  57 100 SE3       29.85F
BESSEMER       LGT RAIN  55  55 100 SE7       29.83S
TALLADEGA      HVY RAIN  55  55  98 CALM      29.91R
PELL CITY      CLOUDY    55  55 100 NE5       29.91R FOG
MARION         CLOUDY    58  58 100 SW7       29.84R
SYLACAUGA      HVY RAIN  56  56 100 NW6       29.91R
$$

ALZ019-021-028-029-037-038-045>048-261600-
EAST CENTRAL ALABAMA

CITY           SKY/WX    TMP DP  RH WIND       PRES   REMARKS
ANNISTON       LGT RAIN  55  52  89 E6        29.89F
ALEXANDER CITY RAIN      56  56 100 E5        29.87F
AUBURN         CLOUDY    62  56  80 S7        29.91S
$$

ALZ051>064-261600-
SOUTHWEST ALABAMA

CITY           SKY/WX    TMP DP  RH WIND       PRES   REMARKS
MOBILE         LGT RAIN  65  63  93 W7        29.89S
BROOKLEY FIELD LGT RAIN  69  63  81 W7        29.90S
EVERGREEN      RAIN      64  61  90 SW6       29.88S FOG
$$

ALZ049-050-065>069-261600-
SOUTHEAST ALABAMA

CITY           SKY/WX    TMP DP  RH WIND       PRES   REMARKS
DOTHAN         CLOUDY    68  54  60 SW14      29.93S
OZARK          PTSUNNY   68  57  68 S9        29.89F
TROY           CLOUDY    64  57  78 S9        29.88F
EUFAULA        FAIR      69  59  70 S5        29.89F
$$



USA.gov is the U.S. government's official web portal to all federal, state and local government web resources and services.